IRIDIUM 20

Last updated on Wed Nov 29 2017 00:19:03 GMT+0000 (Coordinated Universal Time)

1 25577U 98074A 17332.54086896 .00000081 00000-0 21857-4 0 9992 2 25577 86.3977 186.7024 0001986 88.3700 271.7723 14.34219667991995
UTC large
Height (km)
Speed (km/s)
/
Latitude / Longitude
Inclination (degrees)
Orbital Period (minutes)
Azimuth
Elevation
Range (km)
Doppler Factor

Next 0 passes for location: London (51.5072 / 0.1276)

Sorry there are no passes over London.